Location: Arlington
(40.6323°N, 74.1651°W)
Time: 06:35:22
(UTC+00:00)

Cosmos 1782 - Pass Details

Date: 22 November 2019
Orbit: 536 x 553 km, 82.5° (Epoch: 06 December)

Event Time Altitude Azimuth Distance (km) Brightness Sun altitude
Rises 23:44:47 0° 193° (SSW) 2,715 6.6 -24.5°
Reaches altitude 10° 23:46:58 10° 196° (SSW) 1,825 5.7 -24.9°
Enters shadow 23:50:14 54° 225° (SW) 677 3.4 -25.6°
